Temperature
16 16 16 15 15 15 15 15 15 14 14 14 14 14 14 14 13 13 13 13 13 12 12 12 12 12 12 12 12 12 12 12 12 11 11 11 11 11 11 12 12 12 12
15 15 15 15 15 15 14 14 14 14 14 14 14 13 13 13 13 13 13 13 13 12 12 12 12 12 12 12 12 12 12 11 11 11 11 11 11 11 11 11 11 11 11
15 15 14 14 14 14 14 14 14 14 14 13 13 13 13 13 13 13 13 13 13 12 12 12 12 12 12 12 11 11 11 11 11 11 11 11 11 11 11 11 11 11 11
14 14 14 14 14 14 14 14 14 13 13 13 13 13 13 13 13 13 13 13 13 13 12 12 12 12 12 11 11 11 11 11 11 11 11 11 10 10 10 10 10 10 10
14 14 14 14 14 14 14 13 13 13 13 13 13 13 13 13 13 13 13 13 13 13 12 12 12 11 11 11 11 11 10 10 10 10 10 10 10 10 10 10 10 10 10
14 14 14 13 13 13 13 13 13 13 13 13 13 13 13 13 13 13 13 13 13 12 12 11 11 11 11 11 10 10 10 10 10 10 10 10 10 10 10 10 10 10 10
14 13 13 13 13 13 13 13 13 13 13 13 13 13 13 13 13 13 12 12 12 12 11 11 11 11 11 10 10 10 10 9 9 9 9 9 9 9 9 9 9 10 10
13 13 13 13 13 13 13 13 13 13 13 12 12 12 12 12 12 12 12 11 11 11 11 11 11 10 10 10 10 9 9 9 9 9 9 9 9 9 9 9 9 9 9
13 13 13 13 13 13 13 13 13 12 12 12 12 11 11 11 11 10 10 10 10 10 10 10 10 10 9 9 9 9 9 8 8 8 8 8 8 8 8 8 9 9 9
13 13 13 13 13 13 13 13 12 12 12 12 11 11 11 10 9 9 9 9 9 9 9 9 9 9 9 9 8 8 8 8 8 8 7 7 7 8 8 8 8 8 8
14 13 13 13 13 13 12 12 12 12 12 11 11 11 10 10 9 8 8 9 8 8 8 8 8 8 8 8 8 8 7 7 7 7 7 7 7 7 7 7 7 7 8
13 13 13 13 13 12 12 12 12 12 11 11 11 10 10 9 9 8 7 7 7 7 7 7 7 7 7 7 7 7 7 7 7 6 6 6 6 6 6 6 6 7 7
13 13 13 12 12 12 12 12 12 11 11 11 10 10 9 9 8 7 6 6 6 6 6 6 6 6 6 6 6 6 6 6 6 6 5 5 6 6 6 6 6 6 6
12 12 12 12 12 12 12 11 11 11 10 10 10 9 9 8 7 7 6 6 5 5 5 6 6 6 5 5 5 5 5 5 5 5 5 5 5 5 5 5 5 5 6
12 12 12 12 11 11 11 11 10 10 10 9 9 9 8 8 7 6 5 5 5 5 5 5 5 5 5 5 4 4 4 4 4 4 4 4 4 4 4 4 4 5 5
12 11 11 11 11 11 10 10 10 10 9 9 8 8 7 7 6 6 5 5 4 4 4 4 4 4 4 4 3 3 3 3 3 3 3 3 3 3 3 4 4 4 4
11 11 11 11 10 10 10 10 9 9 9 8 8 7 6 6 5 5 5 4 4 3 3 3 3 3 3 3 3 3 3 3 2 2 3 3 3 3 3 3 3 3 4
10 10 10 10 10 9 9 9 8 8 8 7 7 6 6 5 5 4 4 4 3 3 3 3 3 3 3 2 2 2 2 2 2 2 2 2 2 2 2 2 3 3 3
10 9 9 9 9 9 8 8 8 8 7 7 6 5 5 4 4 4 3 3 3 3 2 2 2 2 2 2 2 2 1 1 1 1 1 1 1 1 2 2 2 2 2
9 9 9 9 8 8 8 7 7 7 6 6 5 4 4 3 3 3 3 3 3 2 2 2 2 2 2 2 1 1 1 1 1 1 1 1 1 1 1 1 1 2 2
8 8 8 8 8 7 7 7 6 6 5 5 4 3 3 3 2 2 2 2 2 2 2 2 2 1 1 1 1 1 1 1 1 1 1 1 1 1 1 1 1 1 1
8 7 7 7 7 6 6 6 6 5 5 4 4 3 2 2 2 2 2 2 2 2 2 2 2 1 1 1 1 1 1 1 0 0 0 0 0 0 0 0 0 1 1
7 7 7 6 6 6 5 5 5 4 4 3 3 2 2 2 1 1 2 2 2 2 2 2 1 1 1 1 1 1 0 0 0 0 0 0 -0 -0 -0 -0 -0 0 0
6 6 6 6 5 5 5 4 4 4 3 3 2 2 2 1 1 1 1 1 1 1 1 1 1 1 1 1 0 0 0 -0 -0 -0 -0 -0 -0 -0 -0 -0 -0 -1 -1
6 6 5 5 5 4 4 3 3 3 2 2 2 1 1 1 1 1 1 1 1 1 1 1 1 1 0 0 0 -0 -0 -0 -0 -0 -0 -1 -1 -1 -1 -1 -1 -1 -1
5 5 5 4 4 4 3 3 2 2 2 2 2 1 1 1 1 0 0 0 1 1 1 0 0 0 0 0 -0 -0 -0 -1 -1 -1 -1 -1 -1 -1 -1 -1 -1 -2 -2
Wind_Speed
4 4 4 4 4 3 3 2 2 2 3 4 4 4 4 5 6 7 9 10 10 10 11 11 11 9 9 8 8 7 8 8 8 7 6 6 5 5 4 3 2 1 2
7 5 4 4 4 5 4 3 3 2 2 3 3 4 5 6 7 8 8 9 10 10 10 11 11 9 8 6 5 5 5 6 8 8 8 7 7 6 6 5 4 3 3
9 7 4 3 5 5 4 3 2 2 2 2 3 4 4 5 6 8 8 8 9 9 9 9 8 7 5 4 4 4 4 4 3 6 8 8 7 7 7 7 6 6 5
10 8 4 4 6 5 4 2 2 1 2 2 3 3 3 4 6 7 7 7 7 7 6 5 4 3 3 3 4 3 4 5 4 3 4 6 8 8 8 8 8 8 7
11 9 5 5 5 4 3 2 2 2 2 2 3 3 3 3 4 5 5 6 5 4 4 2 1 2 3 3 4 4 5 5 5 5 5 4 5 8 9 9 8 8 9
10 9 5 5 5 3 2 2 2 1 1 2 3 3 3 3 2 3 3 4 4 3 2 2 4 5 7 7 6 6 6 6 6 6 6 5 5 6 8 9 9 9 9
9 8 4 4 4 3 3 3 2 1 1 0 1 3 3 2 3 3 3 4 5 6 6 6 5 6 6 8 8 7 6 6 6 6 7 7 7 7 7 7 8 10 10
7 7 5 4 4 3 3 3 2 2 1 1 1 1 3 4 3 4 4 5 5 7 7 8 8 7 7 7 8 8 8 7 7 7 7 7 7 7 6 6 6 7 8
7 6 6 5 4 4 3 3 2 3 2 0 1 1 1 3 3 2 4 5 5 5 5 7 8 8 7 7 8 9 10 9 9 9 8 8 8 7 6 5 4 4 4
6 7 6 6 4 3 4 3 2 2 2 1 0 1 2 2 2 3 1 3 5 5 5 5 6 7 8 8 9 10 11 10 10 10 9 8 8 8 8 7 5 5 4
5 6 6 5 4 3 3 3 3 2 2 2 2 1 1 1 3 3 4 1 1 3 3 4 4 6 7 8 9 10 11 10 10 10 10 10 10 11 11 11 10 8 6
3 5 6 5 5 4 4 3 3 3 2 1 1 1 1 2 2 3 4 3 2 1 2 2 3 4 6 7 8 10 11 11 10 10 10 12 12 13 13 13 13 12 9
4 5 5 5 4 4 4 4 3 3 2 2 1 1 1 1 1 2 3 3 2 1 1 1 2 3 4 6 7 9 10 10 11 12 12 13 13 13 13 14 13 13 11
5 6 6 5 5 5 4 4 3 2 2 2 1 1 1 0 0 1 2 2 2 2 2 2 1 3 3 5 7 8 10 11 11 12 12 12 12 12 12 13 13 13 12
6 7 7 6 5 5 4 4 3 3 3 2 2 1 1 0 1 1 1 1 2 3 3 3 2 1 2 5 6 8 9 10 10 10 11 11 10 11 11 12 13 13 13
7 8 7 7 6 5 4 4 3 3 3 2 2 2 1 1 0 1 1 1 2 2 2 1 1 1 2 3 6 7 8 9 10 10 10 10 9 10 10 11 11 12 13
8 8 7 7 6 5 4 4 3 4 3 2 2 2 2 1 1 1 1 1 1 1 3 1 1 1 2 2 3 6 8 8 9 9 9 9 9 9 9 10 10 11 12
7 7 7 7 6 5 5 4 4 4 4 3 2 3 2 1 1 1 1 1 1 1 1 2 2 1 2 1 2 3 5 6 7 8 8 9 8 8 8 9 10 10 11
8 7 7 7 6 5 4 4 4 4 4 4 3 3 2 2 1 1 1 1 1 1 0 2 2 1 1 1 2 2 3 4 5 7 7 9 9 9 8 9 9 10 11
8 7 6 6 6 5 5 4 4 4 4 3 3 3 3 3 2 1 1 0 0 0 1 2 2 2 1 2 2 2 1 2 3 6 6 7 8 9 9 9 9 9 10
7 7 7 6 5 5 4 5 5 5 5 4 3 3 2 3 3 3 1 1 1 1 1 1 2 2 1 1 1 1 1 1 2 3 3 4 5 7 9 9 8 8 8
7 7 7 6 5 4 6 7 6 5 5 5 4 3 2 1 1 1 2 2 3 3 2 2 2 2 2 2 2 1 1 1 1 2 2 2 3 3 6 8 7 7 7
7 7 6 6 5 5 7 7 8 6 5 5 5 4 2 2 3 2 2 3 3 1 2 4 4 4 4 4 4 2 1 1 1 1 1 1 2 2 4 7 6 6 6
6 6 6 7 6 6 8 7 7 6 5 5 5 5 4 3 3 4 3 2 2 2 1 2 3 3 3 4 4 3 3 2 1 1 1 0 2 2 3 5 6 5 5
6 5 5 7 7 6 8 8 7 5 4 5 4 5 5 4 6 6 5 3 1 1 1 3 4 4 4 6 6 4 3 2 0 0 1 1 1 2 2 2 4 6 6
6 7 6 6 7 6 9 10 9 5 5 4 4 4 7 8 8 8 6 5 4 3 1 2 3 3 3 3 4 4 4 3 1 1 0 1 1 2 2 1 2 4 5
Wind_Direction
177 183 191 200 210 215 219 231 257 292 306 310 306 296 294 295 291 288 287 290 286 280 277 278 277 272 269 269 269 266 252 243 239 237 237 239 239 242 244 253 276 309 328
188 189 194 204 214 218 221 223 235 265 284 292 297 293 286 288 287 286 286 289 289 283 278 277 280 281 284 289 296 305 295 262 245 240 237 237 237 239 241 242 246 255 267
196 191 189 203 218 216 212 213 230 243 265 271 281 285 281 283 284 285 286 285 287 287 283 277 278 287 300 319 332 345 0 5 295 252 243 240 238 239 240 240 241 243 243
197 185 184 203 210 198 190 185 191 212 250 269 282 288 286 288 288 289 290 289 287 286 291 286 284 297 321 348 353 6 26 36 25 351 271 252 244 242 242 241 240 239 237
192 183 185 197 188 173 173 182 175 185 233 271 279 283 287 287 295 308 307 304 298 290 290 323 36 57 62 55 49 46 46 41 29 17 0 317 272 254 247 244 240 238 234
186 180 178 180 171 156 162 165 174 179 220 268 289 295 292 301 327 335 330 346 3 15 37 64 73 72 71 69 64 57 52 42 25 9 353 332 316 286 264 253 246 239 235
180 175 168 161 158 163 166 163 156 171 235 272 331 322 323 351 25 16 17 27 33 45 60 63 66 69 63 61 55 52 45 33 16 358 344 332 312 297 288 271 260 245 239
179 174 163 164 161 154 145 145 147 157 191 107 128 336 330 341 15 33 32 39 34 45 54 55 59 59 59 57 49 45 39 27 11 356 342 331 321 306 297 292 278 261 247
173 168 161 151 152 151 156 157 159 163 183 182 145 180 237 276 312 356 38 40 39 44 45 50 52 52 53 53 47 42 36 24 10 2 355 352 346 334 321 312 315 303 279
156 156 148 144 146 147 146 147 141 143 150 190 278 261 226 214 260 303 344 39 45 44 38 44 46 47 49 50 46 41 35 25 13 8 6 4 0 1 4 360 346 334 330
143 141 141 138 135 133 134 128 125 124 146 173 191 212 240 238 229 241 271 292 28 42 40 42 47 45 43 45 42 38 32 24 16 10 14 23 25 24 21 19 17 9 356
142 137 131 130 129 133 137 133 126 130 136 150 177 203 215 232 234 238 256 256 248 140 61 44 47 45 45 42 40 40 34 29 25 22 26 35 35 30 23 21 21 17 9
169 160 144 139 132 129 124 120 120 123 128 145 173 206 231 246 260 251 259 263 244 188 155 91 49 47 52 47 40 43 39 37 36 37 39 42 40 33 27 23 19 16 13
162 150 141 135 129 126 124 123 121 131 131 138 156 164 188 265 292 258 258 259 260 222 197 182 92 56 54 52 46 49 45 44 44 45 44 42 39 35 31 27 22 17 14
142 143 140 134 129 128 129 126 125 130 130 130 140 132 132 71 22 331 297 256 251 252 231 177 155 92 68 65 55 56 51 47 47 50 47 41 38 34 32 29 25 22 19
141 143 141 136 132 128 127 123 125 128 129 133 135 127 120 109 49 353 307 281 252 252 249 141 142 122 89 85 67 61 57 52 47 48 45 39 37 36 33 29 26 25 25
143 145 142 138 137 135 130 128 135 140 142 137 130 133 127 112 108 4 349 316 273 252 238 146 103 100 98 87 66 61 57 52 42 41 40 38 38 38 35 32 29 27 30
140 140 139 138 140 139 139 144 153 149 150 151 142 138 143 131 116 59 33 2 317 297 228 181 138 114 92 97 80 64 49 47 42 38 40 39 39 40 41 39 37 37 37
137 136 140 142 144 146 146 148 151 148 152 155 155 158 159 149 148 108 65 23 337 325 321 148 138 110 87 74 74 60 50 36 37 31 37 37 39 42 45 44 41 40 39
143 145 144 146 149 150 148 146 145 144 144 142 143 149 154 165 174 169 146 352 342 15 81 122 124 110 98 72 85 72 42 28 21 17 26 35 38 41 41 41 41 40 40
146 144 142 144 145 148 157 158 156 157 154 147 139 139 158 173 182 177 172 188 157 140 127 129 133 120 125 118 124 97 84 11 30 18 2 18 24 31 27 23 28 37 42
145 145 151 153 156 167 181 178 167 162 163 165 165 158 154 133 149 145 148 155 170 171 176 165 162 174 178 165 137 128 110 78 309 4 15 0 19 20 9 7 21 40 47
156 157 160 163 171 188 193 190 182 163 168 177 178 175 176 168 119 81 70 57 35 35 189 173 179 191 179 179 157 142 145 153 204 330 12 350 5 0 359 3 18 46 54
167 168 170 175 176 196 201 198 187 158 167 182 185 183 182 181 181 167 140 102 46 16 50 134 173 183 179 164 162 161 157 132 105 36 39 352 348 338 340 358 21 40 45
174 174 175 179 183 201 206 201 180 149 172 190 192 191 191 198 218 200 170 169 167 335 50 136 149 156 161 162 152 128 131 112 147 190 33 89 352 330 329 339 11 28 38
180 175 183 188 189 199 208 205 186 163 180 193 199 209 215 211 221 215 179 180 199 215 177 110 96 93 89 125 152 153 154 149 167 224 185 108 43 12 348 335 358 10 20
Height
1550 1552 1553 1554 1555 1556 1557 1558 1559 1559 1560 1560 1560 1560 1560 1560 1559 1559 1558 1558 1557 1557 1556 1556 1555 1555 1554 1553 1552 1552 1551 1550 1550 1549 1549 1548 1548 1547 1547 1546 1546 1546 1545
1549 1550 1552 1553 1554 1555 1556 1557 1557 1558 1558 1558 1558 1558 1558 1557 1557 1556 1555 1555 1554 1554 1553 1553 1553 1552 1552 1551 1550 1549 1549 1548 1548 1547 1547 1546 1546 1546 1546 1545 1545 1544 1544
1548 1549 1550 1552 1553 1553 1554 1555 1555 1556 1556 1556 1556 1556 1555 1555 1554 1553 1552 1552 1551 1551 1550 1550 1550 1550 1549 1548 1548 1547 1546 1546 1545 1545 1544 1544 1544 1544 1544 1543 1543 1543 1543
1546 1547 1549 1550 1551 1551 1552 1553 1553 1553 1554 1554 1553 1553 1552 1552 1551 1550 1549 1548 1547 1547 1547 1547 1546 1546 1546 1546 1545 1544 1544 1543 1542 1542 1542 1541 1541 1541 1541 1541 1541 1541 1541
1544 1545 1546 1548 1549 1549 1550 1550 1551 1551 1551 1551 1551 1550 1549 1548 1547 1546 1545 1544 1543 1543 1543 1543 1543 1543 1543 1543 1542 1542 1541 1540 1540 1539 1539 1538 1538 1538 1538 1538 1538 1538 1539
1541 1543 1544 1545 1546 1547 1547 1548 1548 1548 1548 1548 1547 1546 1546 1545 1543 1542 1541 1540 1540 1539 1540 1540 1540 1541 1541 1541 1540 1539 1538 1538 1537 1536 1536 1535 1535 1535 1534 1534 1535 1535 1536
1538 1540 1541 1542 1543 1544 1545 1545 1546 1546 1545 1545 1544 1543 1542 1541 1539 1539 1538 1537 1537 1537 1537 1537 1537 1538 1538 1538 1538 1537 1536 1535 1534 1533 1532 1532 1531 1531 1531 1531 1531 1532 1532
1535 1536 1538 1539 1540 1541 1542 1542 1542 1542 1542 1542 1541 1540 1539 1538 1536 1536 1535 1535 1535 1535 1535 1535 1535 1535 1535 1535 1535 1534 1534 1533 1531 1530 1529 1528 1527 1527 1527 1527 1528 1528 1529
1531 1533 1534 1536 1537 1538 1538 1539 1539 1539 1539 1539 1538 1539 1537 1535 1534 1533 1533 1532 1532 1532 1532 1532 1532 1532 1532 1532 1531 1531 1530 1530 1529 1527 1526 1525 1524 1524 1524 1524 1524 1525 1525
1527 1529 1530 1532 1533 1534 1535 1535 1535 1535 1535 1535 1535 1534 1535 1533 1533 1531 1530 1529 1529 1529 1529 1529 1529 1529 1529 1528 1528 1527 1527 1526 1525 1524 1523 1522 1522 1521 1521 1520 1520 1521 1521
1523 1525 1526 1527 1529 1530 1531 1531 1531 1531 1531 1531 1531 1530 1530 1529 1529 1528 1526 1526 1526 1525 1525 1525 1525 1525 1525 1525 1525 1524 1523 1523 1522 1521 1520 1519 1519 1518 1518 1517 1517 1517 1517
1518 1520 1522 1523 1524 1525 1526 1527 1527 1527 1527 1527 1526 1526 1526 1525 1524 1524 1523 1522 1521 1521 1521 1521 1521 1521 1521 1521 1521 1520 1520 1519 1519 1518 1517 1516 1515 1515 1515 1514 1514 1513 1513
1513 1515 1517 1519 1520 1521 1522 1522 1522 1522 1522 1522 1522 1521 1521 1520 1520 1519 1519 1518 1517 1517 1517 1517 1517 1518 1518 1518 1517 1517 1516 1516 1515 1515 1514 1513 1512 1512 1511 1511 1511 1510 1510
1509 1510 1512 1514 1516 1517 1517 1518 1518 1518 1518 1518 1517 1516 1516 1515 1515 1515 1515 1515 1514 1513 1513 1513 1514 1514 1514 1514 1514 1514 1513 1512 1512 1511 1511 1510 1509 1509 1508 1508 1508 1507 1507
1504 1506 1508 1510 1512 1512 1513 1513 1514 1514 1514 1513 1512 1511 1511 1510 1510 1510 1510 1510 1511 1510 1509 1509 1510 1510 1510 1510 1510 1510 1510 1509 1509 1508 1508 1507 1507 1506 1506 1505 1505 1505 1505
1500 1502 1504 1506 1507 1508 1508 1509 1509 1509 1509 1508 1507 1507 1506 1506 1505 1505 1505 1505 1506 1507 1506 1505 1506 1506 1507 1507 1507 1507 1506 1506 1505 1505 1504 1504 1504 1504 1503 1503 1503 1502 1502
1496 1498 1500 1501 1503 1503 1504 1504 1505 1504 1504 1503 1503 1502 1502 1501 1501 1501 1501 1501 1501 1502 1502 1502 1503 1503 1503 1504 1504 1503 1503 1503 1502 1502 1502 1501 1501 1501 1501 1501 1500 1500 1500
1492 1494 1495 1497 1498 1499 1500 1500 1500 1500 1499 1499 1499 1498 1498 1497 1497 1497 1497 1497 1497 1497 1498 1498 1499 1499 1500 1500 1500 1500 1500 1500 1499 1499 1499 1499 1499 1499 1498 1498 1498 1498 1498
1488 1489 1491 1492 1493 1494 1495 1495 1496 1495 1495 1495 1494 1494 1494 1493 1493 1493 1493 1493 1493 1493 1494 1495 1495 1496 1496 1497 1497 1497 1497 1497 1497 1497 1496 1496 1496 1496 1496 1496 1496 1496 1496
1483 1485 1487 1488 1489 1490 1491 1491 1491 1491 1491 1490 1490 1490 1490 1490 1490 1489 1489 1489 1489 1490 1490 1491 1492 1493 1493 1494 1494 1494 1494 1494 1494 1494 1494 1494 1494 1494 1494 1494 1494 1494 1494
1480 1481 1483 1484 1485 1486 1486 1487 1487 1487 1486 1486 1486 1486 1486 1487 1486 1486 1486 1486 1487 1487 1487 1488 1488 1489 1490 1490 1491 1491 1491 1491 1491 1492 1492 1492 1492 1492 1492 1492 1492 1492 1493
1475 1477 1478 1480 1481 1481 1482 1482 1482 1482 1482 1483 1483 1483 1483 1483 1483 1483 1483 1483 1484 1484 1485 1485 1486 1486 1487 1488 1488 1488 1489 1489 1489 1490 1490 1490 1490 1490 1490 1490 1490 1490 1491
1471 1473 1474 1476 1477 1477 1478 1478 1478 1478 1479 1479 1479 1479 1479 1480 1480 1480 1481 1481 1481 1481 1482 1483 1483 1484 1485 1485 1486 1486 1486 1487 1487 1487 1488 1488 1488 1488 1488 1488 1488 1488 1489
1467 1469 1470 1471 1472 1473 1473 1473 1474 1474 1475 1475 1475 1476 1476 1477 1477 1478 1478 1478 1479 1479 1479 1480 1481 1482 1482 1483 1483 1484 1484 1485 1485 1485 1486 1486 1486 1486 1486 1486 1486 1486 1487
1463 1464 1465 1466 1467 1468 1469 1469 1470 1470 1471 1471 1472 1472 1473 1473 1474 1475 1475 1476 1476 1477 1477 1478 1479 1479 1480 1480 1481 1482 1482 1482 1483 1483 1483 1483 1484 1484 1484 1484 1484 1484 1484
1458 1459 1460 1461 1462 1463 1464 1465 1465 1466 1467 1467 1468 1469 1469 1470 1471 1471 1472 1473 1474 1474 1475 1476 1476 1477 1477 1478 1479 1479 1480 1480 1480 1481 1481 1481 1481 1482 1482 1482 1482 1482 1482